[[{"header":{"parameterUnit":"m.s-1","parameterCategory":1,"la1":30.2991,"la2":30.254,"lo1":-89.0895,"lo2":-89.0444,"dy":0.0017,"dx":0.0017,"nx":28,"ny":28,"refTime":"2025-08-03T09:00:00:Z","depth":0,"parameterNumber":2,"parameterNumberName":"U-component_of_WINDS"},"data":[0,0,0,0,0,0,0,0,0,0,0,0,0,0,0,0,0,0,0,0,0,0,0,0,0,0,0,0,0,0,0,0,0,0,0,0,0,0,0,0,0,0,0,0,0,0,0,0,0,0,0,0,0,0,0,0,0,0,2.397,2.3972,0,2.4081,2.4082,2.4083,2.4051,2.4049,2.4047,2.4045,2.4161,2.4166,2.4171,0,0,0,0,0,0,0,0,0,0,0,0,0,2.3737,2.3741,2.397,2.3972,2.3973,2.408,2.4082,2.4084,2.4052,2.4049,2.4046,2.4044,2.4159,2.4166,2.4172,0,0,0,0,0,0,0,0,0,0,0,0,0,2.3842,2.3743,2.397,2.397,2.3971,2.408,2.4082,2.4084,2.4052,2.4049,2.4045,2.4042,2.4157,2.4165,2.4173,2.4289,0,0,2.4197,2.42,0,0,0,0,0,0,0,0,2.3836,2.385,2.3969,2.397,2.3972,2.4049,2.4042,2.4153,2.4053,2.4022,2.4045,2.4041,2.4127,2.4137,2.4165,2.4295,2.43,2.4197,2.4202,2.4205,2.4208,0,0,0,0,0,0,0,2.3829,2.3846,2.4014,2.3971,2.3972,2.3966,2.3977,2.4063,2.4092,2.4024,2.4022,2.4035,2.4127,2.4158,2.4168,2.4302,2.4197,2.4204,2.4209,2.4212,2.4534,2.4537,0,0,0,0,0,0,2.382,2.384,2.4011,2.4017,2.3894,2.3973,2.3986,2.4028,2.4091,2.4097,2.4038,2.4033,2.4146,2.4159,2.4172,2.4312,2.4205,2.4213,2.4217,2.453,2.4535,2.4539,0,0,0,0,0,0,2.3815,2.3835,2.4006,2.3928,2.3949,2.3981,2.4028,2.4031,2.4062,2.4102,2.4107,2.4064,2.4144,2.4161,2.426,2.4316,2.4216,2.4223,2.4525,2.4531,2.4537,2.4594,0,0,0,0,0,0,2.3808,2.3834,2.3877,2.3929,2.3954,2.4092,2.4032,2.4036,2.4075,2.407,2.4127,2.4133,2.4142,2.4249,2.4268,2.4325,2.423,2.4521,2.4528,2.4535,2.4588,2.4602,2.4613,0,0,0,0,0,2.38,2.3889,2.3879,2.39,2.4008,2.4095,2.4109,2.4116,2.408,2.4124,2.415,2.4132,2.4307,2.4259,2.4281,2.4341,2.4517,2.4526,2.4534,2.4582,2.4599,2.4613,0,0,0,0,0,0,2.3844,2.3896,2.3886,2.3994,2.404,2.4089,2.4145,2.4134,2.4192,2.4185,2.4193,2.4206,2.4308,2.4335,2.4281,2.4458,2.4407,2.442,2.4436,2.4452,2.4465,2.4455,2.4236,0,0,0,0,0,2.3866,2.3931,2.3974,2.4066,2.4089,2.4114,2.4152,2.4154,2.4202,2.4221,2.4254,2.4303,2.4369,2.4413,2.4476,2.4592,2.4605,2.4645,2.4657,2.4668,2.4678,2.4743,2.4761,2.4567,2.4567,2.4567,0,0,2.3912,2.3949,2.399,2.4075,2.4111,2.4179,2.413,2.4204,2.4255,2.4233,2.4328,2.4355,2.441,2.4519,2.4568,2.4544,2.4735,2.4679,2.4687,2.4692,2.4753,2.4772,2.4788,2.4573,2.4572,2.4571,0,0,2.4031,2.4066,2.4146,2.4183,2.4238,2.4254,2.4274,2.4325,2.4341,2.4437,2.4423,2.4485,2.4598,2.4638,2.4673,2.481,2.4795,2.4831,2.4897,2.4959,2.4975,2.4988,2.5036,2.5054,2.4842,2.4842,2.4843,0,2.4082,2.4183,2.4189,2.4265,2.4303,2.4287,2.4369,2.4405,2.4478,2.4506,2.4478,2.462,2.4657,2.4774,2.4808,2.4837,2.486,2.4823,2.4972,2.4985,2.4998,2.5044,2.5062,2.4846,2.4846,2.4845,2.4845,0,2.4243,2.4313,2.4372,2.4442,2.4487,2.4566,2.4586,2.4631,2.463,2.465,2.4749,2.4792,2.4863,2.4892,2.4892,2.5011,2.4994,2.4969,2.4918,2.502,2.5064,2.5081,2.4852,2.485,2.4849,2.4848,0,0,2.4389,2.4464,2.4485,2.4517,2.4577,2.4632,2.4711,2.478,2.4819,2.4872,2.4938,2.5036,2.5013,2.5053,2.5058,2.5113,2.5219,2.5082,2.5083,2.5105,2.5352,2.5369,2.5389,2.521,2.5214,2.5216,2.5347,0,2.4513,2.4649,2.4659,2.4783,2.4848,2.4835,2.4904,2.4949,2.4971,2.503,2.5055,2.5123,2.5089,2.5113,2.5167,2.5194,2.5268,2.5185,2.5272,2.5275,2.5257,2.5412,2.543,2.5551,2.5364,2.5367,2.5369,0,2.4674,2.473,2.486,2.4912,2.494,2.5002,2.5066,2.5124,2.5176,2.5188,2.5233,2.5231,2.5313,2.5261,2.5375,2.5319,2.5356,2.5375,2.538,2.5387,2.5327,2.5422,2.5589,2.5607,2.5396,2.5394,2.5392,0,2.4766,2.4875,2.4967,2.4995,2.5059,2.5102,2.5131,2.518,2.5221,2.5279,2.5306,2.5373,2.5409,2.5462,2.5478,2.5439,2.5592,2.5541,2.5604,2.5604,2.5635,2.5632,2.5809,2.5662,2.5662,2.5661,2.5661,0,2.4902,2.4982,2.501,2.5066,2.5156,2.5167,2.5257,2.5283,2.5327,2.5389,2.5383,2.5442,2.5461,2.5524,2.5538,2.563,2.5647,2.5659,2.5661,2.5659,2.5657,2.5681,2.5672,2.5666,2.5665,2.5664,2.5663,0,2.5019,2.5041,2.514,2.5193,2.5208,2.5272,2.5317,2.5373,2.5394,2.5473,2.5492,2.5526,2.5599,2.5621,2.5711,2.572,2.5828,2.5823,2.5809,2.5809,2.587,2.5864,2.6068,2.6095,2.5931,2.5933,2.5934,0,2.5103,2.5164,2.5224,2.5264,2.5295,2.5361,2.5403,2.5418,2.5463,2.5528,2.5575,2.5648,2.5706,2.5825,2.5858,2.5927,2.5923,2.599,2.5933,2.5928,2.5923,2.5918,2.5924,2.6,2.6002,2.6003,2.6004,0,2.5249,2.5258,2.5318,2.5383,2.5434,2.5486,2.5537,2.5571,2.5593,2.5644,2.5719,2.5764,2.5855,2.5928,2.5998,2.6029,2.6021,2.6022,2.604,2.6037,2.6025,2.6031,2.5837,2.6017,2.6016,2.6015,2.6014,2.6013,2.5352,2.5406,2.5456,2.5524,2.5564,2.5611,2.5666,2.5694,2.5756,2.583,2.5836,2.5917,2.597,2.6062,2.6097,2.6162,2.6142,2.6169,2.6175,2.6181,2.6185,2.6017,2.6175,2.6175,2.6174,2.6174,2.6174,0,2.5497,2.5529,2.5591,2.5662,2.5716,2.5704,2.576,2.5806,2.5877,2.5926,2.5984,2.6071,2.6142,2.6181,2.6252,2.6296,2.6294,2.6314,2.631,2.6317,2.6199,2.6176,2.6314,2.6314,2.6314,2.6314,2.6314,2.6314,2.5578,2.5668,2.5683,2.5794,2.5826,2.5904,2.5937,2.5982,2.6021,2.6117,2.6176,2.6201,2.6247,2.6321,2.6386,2.6396,2.6422,2.6443,2.6451,2.634,2.6325,2.6311,2.6289,2.6449,2.645,2.6563,2.6564,2.6565]},{"header":{"parameterUnit":"m.s-1","parameterCategory":1,"la1":30.2991,"la2":30.254,"lo1":-89.0895,"lo2":-89.0444,"dy":0.0017,"dx":0.0017,"nx":28,"ny":28,"refTime":"2025-08-03T09:00:00:Z","depth":0,"parameterNumber":3,"parameterNumberName":"V-component_of_WINDS"},"data":[0,0,0,0,0,0,0,0,0,0,0,0,0,0,0,0,0,0,0,0,0,0,0,0,0,0,0,0,0,0,0,0,0,0,0,0,0,0,0,0,0,0,0,0,0,0,0,0,0,0,0,0,0,0,0,0,0,0,1.3946,1.3948,0,1.418,1.4183,1.4185,1.4219,1.4217,1.4215,1.4213,1.4449,1.4457,1.4465,0,0,0,0,0,0,0,0,0,0,0,0,0,1.352,1.3528,1.3945,1.3948,1.3951,1.418,1.4183,1.4186,1.422,1.4217,1.4214,1.4212,1.4446,1.4456,1.4466,0,0,0,0,0,0,0,0,0,0,0,0,0,1.3725,1.353,1.3945,1.3996,1.4003,1.4179,1.4183,1.4187,1.422,1.4217,1.4214,1.4211,1.4443,1.4455,1.4467,1.4609,0,0,1.4505,1.4511,0,0,0,0,0,0,0,0,1.3713,1.374,1.3985,1.3993,1.4001,1.4167,1.412,1.4328,1.4221,1.4137,1.4213,1.4209,1.4358,1.4377,1.4428,1.462,1.463,1.4507,1.4514,1.4519,1.4523,0,0,0,0,0,0,0,1.3699,1.373,1.4038,1.3989,1.3998,1.4004,1.403,1.4159,1.4263,1.4144,1.4147,1.4175,1.4361,1.4416,1.4434,1.4633,1.4506,1.4517,1.4525,1.453,1.4947,1.495,0,0,0,0,0,0,1.3676,1.3718,1.4031,1.4045,1.3846,1.4015,1.4043,1.4117,1.4261,1.428,1.4177,1.4176,1.4396,1.4419,1.4442,1.4614,1.4519,1.4531,1.4538,1.4943,1.4948,1.4952,0,0,0,0,0,0,1.3667,1.3704,1.4021,1.3883,1.3924,1.4026,1.4108,1.4123,1.4178,1.4286,1.4304,1.4215,1.4394,1.4425,1.4566,1.4623,1.4537,1.4548,1.4939,1.4945,1.495,1.4961,0,0,0,0,0,0,1.3654,1.37,1.3757,1.3884,1.3931,1.4144,1.4111,1.413,1.42,1.42,1.4326,1.4344,1.4394,1.4547,1.4578,1.4638,1.4558,1.4934,1.4942,1.4948,1.4956,1.4966,1.4975,0,0,0,0,0,1.3639,1.3751,1.376,1.3797,1.4004,1.4147,1.4174,1.4231,1.4204,1.4261,1.4329,1.434,1.4611,1.4562,1.4597,1.4661,1.4931,1.494,1.4948,1.4952,1.4964,1.4974,0,0,0,0,0,0,1.3628,1.3769,1.378,1.3937,1.4029,1.4153,1.4226,1.4243,1.4345,1.434,1.4405,1.4433,1.457,1.463,1.4572,1.4803,1.4769,1.4784,1.4759,1.4772,1.4781,1.4764,1.4568,0,0,0,0,0,1.3644,1.375,1.3866,1.3993,1.4039,1.4124,1.4189,1.4224,1.4322,1.4362,1.4441,1.4535,1.4641,1.471,1.4814,1.4964,1.499,1.5025,1.5034,1.5041,1.5054,1.5134,1.515,1.4978,1.4978,1.4978,0,0,1.3678,1.3767,1.3831,1.3993,1.4069,1.4175,1.4157,1.4271,1.435,1.4379,1.4517,1.4578,1.4686,1.4832,1.49,1.4886,1.5107,1.5052,1.5057,1.5066,1.5144,1.516,1.5174,1.4984,1.4983,1.4982,0,0,1.3794,1.3873,1.3986,1.4062,1.4177,1.4233,1.4259,1.4379,1.4421,1.456,1.4583,1.4676,1.4858,1.4933,1.4996,1.5133,1.5146,1.5165,1.5215,1.5291,1.5305,1.5317,1.5364,1.538,1.5177,1.5177,1.5177,0,1.3821,1.3984,1.4041,1.4154,1.4223,1.4253,1.4366,1.4436,1.4579,1.4625,1.4607,1.4833,1.4909,1.507,1.5103,1.5153,1.5183,1.5152,1.5299,1.5311,1.5324,1.5369,1.5387,1.5179,1.5179,1.5179,1.5178,0,1.401,1.4122,1.4198,1.4336,1.4413,1.4525,1.4597,1.4668,1.4694,1.475,1.4889,1.498,1.5101,1.5141,1.5169,1.5306,1.5293,1.5286,1.5253,1.5341,1.5384,1.5402,1.5181,1.5181,1.518,1.518,0,0,1.4129,1.4294,1.4321,1.4382,1.4509,1.4595,1.4706,1.4825,1.4883,1.4978,1.5071,1.5222,1.5215,1.5285,1.5321,1.5388,1.5488,1.5373,1.5376,1.539,1.564,1.5644,1.5664,1.5496,1.55,1.5503,1.563,0,1.4259,1.446,1.4513,1.4683,1.4785,1.4812,1.4908,1.4994,1.5048,1.514,1.5198,1.5304,1.5288,1.5329,1.5397,1.5462,1.5539,1.5453,1.5581,1.5585,1.5553,1.5687,1.5694,1.581,1.5648,1.5651,1.5653,0,1.4439,1.4538,1.4718,1.4828,1.4872,1.4958,1.5069,1.5157,1.5254,1.5287,1.5363,1.5391,1.5504,1.5463,1.5618,1.5558,1.5612,1.5651,1.5657,1.5671,1.5625,1.5704,1.5849,1.5866,1.5681,1.5679,1.5677,0,1.4505,1.4684,1.4814,1.4865,1.4997,1.5056,1.5113,1.5207,1.5273,1.5368,1.5411,1.5518,1.5576,1.5657,1.5711,1.5677,1.5859,1.5824,1.5888,1.5887,1.5927,1.5924,1.6082,1.5962,1.5962,1.5961,1.5961,0,1.4645,1.4754,1.4845,1.4925,1.5045,1.5103,1.522,1.5277,1.5359,1.5448,1.5478,1.556,1.5627,1.5717,1.576,1.5879,1.5906,1.5934,1.5944,1.5932,1.5928,1.5969,1.5962,1.5966,1.5965,1.5964,1.5963,0,1.4741,1.4807,1.495,1.5062,1.5093,1.5176,1.5271,1.5347,1.54,1.5512,1.5541,1.5623,1.573,1.5792,1.5928,1.5956,1.6088,1.6094,1.6056,1.606,1.612,1.6113,1.631,1.6337,1.62,1.6201,1.6202,0,1.4827,1.4911,1.5031,1.5093,1.5151,1.5251,1.5318,1.5376,1.5444,1.5557,1.5619,1.5728,1.5819,1.5988,1.6058,1.616,1.6169,1.623,1.6184,1.6168,1.6168,1.6162,1.6169,1.6239,1.624,1.6241,1.6242,0,1.497,1.4997,1.5094,1.5201,1.528,1.5367,1.5453,1.5502,1.5573,1.5647,1.5758,1.5827,1.5964,1.6071,1.6177,1.6233,1.6248,1.6255,1.6275,1.6263,1.6237,1.625,1.6076,1.6251,1.625,1.6249,1.6249,1.6248,1.5063,1.5137,1.5233,1.5338,1.5408,1.5487,1.5563,1.5624,1.5718,1.5835,1.5861,1.5976,1.6065,1.6211,1.6268,1.6357,1.6346,1.6375,1.6383,1.6389,1.639,1.6222,1.6376,1.6376,1.6376,1.6376,1.6376,0,1.5207,1.5268,1.5365,1.5483,1.5565,1.5572,1.5666,1.5733,1.5835,1.5917,1.6005,1.6129,1.6231,1.6307,1.641,1.6466,1.6475,1.6491,1.6488,1.6499,1.6395,1.6367,1.6482,1.6482,1.6482,1.6482,1.6482,1.6482,1.5291,1.5417,1.5454,1.5613,1.5673,1.5787,1.5839,1.591,1.5976,1.6114,1.6199,1.6248,1.6326,1.6435,1.6527,1.6547,1.6583,1.6597,1.6617,1.6519,1.6507,1.6497,1.647,1.6605,1.6605,1.6715,1.6716,1.6716]}]]